Dewpoint
30 30 30 30 30 29 29 29 29 29 29 30 30 31 32 32 32 32 32 31 30 29 29 29 29 29 30 33 35 36 36 37 37 38 38 38 38 38 38 38 39 39 39 40 40 40 41 41 41 41 41 42 42 43 43 44 45 46 46 47 47 46 46 46 46 46 47 48 49 50 50 51 51 52 52 52 53 53 53 52 52 52 51 51 50 50
29 30 30 30 29 29 28 29 29 29 29 29 30 30 31 30 30 31 31 30 29 29 28 28 28 28 28 31 34 35 36 36 37 37 37 38 38 38 38 38 38 39 39 39 40 40 41 41 41 41 41 42 42 42 43 43 44 45 46 46 46 46 46 45 45 46 46 47 47 48 48 49 49 50 51 51 52 52 52 52 52 52 51 51 50 50
29 29 29 29 29 28 28 28 29 29 29 30 30 31 30 30 30 30 30 29 29 29 28 28 28 28 28 30 33 35 35 36 36 36 37 37 37 38 38 38 38 38 38 39 39 40 40 41 41 41 41 42 42 42 43 43 44 44 45 45 46 46 46 45 45 45 45 46 46 47 47 47 47 48 49 49 50 50 51 51 50 50 50 50 49 49
28 28 28 29 29 28 28 28 29 29 30 30 31 31 31 31 30 30 30 29 29 28 28 28 28 28 28 29 32 34 35 35 36 36 36 37 37 37 37 38 38 38 38 38 39 39 40 40 41 41 41 42 42 42 43 43 44 44 45 45 46 46 46 45 45 45 45 45 45 46 46 46 46 47 47 47 48 48 49 49 49 49 48 48 47 47
29 29 29 29 29 29 29 29 29 30 31 31 31 31 31 31 31 31 31 30 29 29 29 29 28 28 28 29 31 33 35 35 36 36 36 36 37 37 37 37 38 38 38 38 38 39 39 40 40 41 41 41 42 42 43 43 44 44 45 45 45 46 46 46 46 45 45 45 45 45 46 46 46 46 46 46 47 47 47 48 48 47 47 47 47 47
29 29 29 29 29 29 29 30 30 31 31 31 31 31 31 32 31 31 31 30 30 30 29 29 29 29 29 29 31 33 34 35 35 35 36 36 36 36 37 37 37 37 38 38 38 38 39 39 40 40 41 41 42 42 42 43 43 44 45 45 46 46 46 46 46 46 46 46 46 46 46 46 46 46 46 46 46 46 47 47 47 47 47 47 47 47
30 29 30 30 30 30 31 31 31 31 31 31 31 31 31 32 32 32 32 31 31 30 30 30 30 29 29 29 31 33 33 34 34 35 35 35 36 36 36 36 36 37 37 37 38 38 38 38 39 40 40 41 41 42 42 42 43 43 45 45 46 46 46 46 46 46 46 46 47 47 47 47 47 47 47 47 47 47 47 47 47 47 47 47 47 47
31 30 31 30 31 31 31 31 32 32 31 31 30 30 30 31 31 32 32 32 32 31 31 30 30 29 29 29 29 30 30 30 31 31 32 33 34 34 34 35 35 36 36 37 37 37 38 38 38 39 40 40 41 42 42 42 43 43 44 45 46 46 46 46 46 46 46 47 47 47 47 47 47 47 47 47 47 47 47 47 47 47 47 47 47 47
32 32 32 31 31 32 32 31 32 32 32 31 31 30 30 30 30 30 31 31 32 32 31 30 30 29 29 28 28 29 29 29 29 28 29 29 29 30 32 33 34 35 35 36 36 36 37 37 38 38 39 40 41 41 42 42 42 42 43 44 45 46 46 46 46 46 46 46 47 47 47 47 47 47 47 47 47 47 47 47 47 47 47 46 46 47
34 33 33 33 32 32 32 32 32 32 32 32 31 31 31 30 30 29 29 29 30 30 30 30 29 29 29 29 28 28 29 29 30 31 31 30 30 31 31 32 32 33 34 35 35 35 36 36 37 37 38 39 40 41 42 42 42 42 42 43 43 45 46 46 46 46 46 46 46 46 47 46 46 46 46 46 47 47 47 47 47 47 46 46 46 46
34 34 33 33 33 33 33 32 32 32 33 33 33 33 33 32 31 30 29 29 29 29 29 29 29 29 28 28 28 28 28 28 29 30 31 32 32 32 32 32 32 33 34 34 34 35 35 35 36 37 37 38 39 40 41 41 42 42 41 42 42 43 45 46 46 46 46 46 46 46 46 46 45 45 45 45 45 46 46 47 46 46 46 45 45 45
34 34 34 34 34 34 33 33 33 33 34 34 34 33 33 32 32 31 30 29 29 28 28 28 29 29 29 28 28 27 27 26 26 26 27 28 29 30 30 30 31 32 32 33 34 34 34 35 35 36 36 37 38 38 39 40 41 41 41 41 42 42 43 45 46 46 47 46 46 46 46 45 45 44 44 44 44 45 45 46 46 46 45 45 45 45
34 34 34 34 34 33 33 33 33 34 34 34 33 32 32 31 32 31 31 29 29 29 28 28 28 29 29 29 28 27 26 26 25 25 25 25 26 26 26 26 27 27 28 29 29 30 33 34 34 35 35 35 36 38 38 39 40 41 41 41 41 42 42 43 45 46 46 47 46 46 46 45 45 44 44 44 44 44 44 45 45 45 45 45 45 45
34 34 34 33 33 33 33 33 33 33 33 33 32 32 31 31 31 31 31 30 30 29 29 28 28 28 28 28 28 28 27 26 25 25 25 25 25 25 25 25 25 25 26 26 26 27 30 31 31 32 34 34 35 36 37 38 39 40 40 41 41 41 42 43 44 45 46 46 46 46 46 45 45 44 44 44 44 44 44 44 44 45 45 44 45 45
34 34 34 33 33 32 32 32 32 32 31 31 31 32 32 32 32 31 31 30 30 30 29 29 29 28 28 28 28 28 27 26 25 25 25 25 25 26 26 25 25 25 26 25 25 26 29 29 28 28 29 31 32 33 34 36 38 39 39 40 41 41 42 42 43 44 45 46 46 46 46 45 45 45 44 44 44 44 44 44 44 44 44 44 44 45
34 34 34 33 32 32 31 31 31 31 31 31 31 32 32 32 32 32 31 31 30 30 30 29 29 28 28 28 29 28 27 26 26 25 25 25 25 26 26 26 25 25 26 25 25 26 27 27 27 27 28 29 31 33 34 35 36 38 38 39 40 41 42 42 43 44 45 45 46 46 46 45 45 45 45 45 45 45 45 44 44 44 44 44 44 44
35 34 34 34 33 32 31 31 31 31 31 31 32 32 32 32 32 32 31 31 31 30 30 29 28 27 26 27 28 28 28 27 26 25 25 25 26 27 27 26 26 25 26 26 25 25 25 26 26 27 27 29 31 33 33 34 35 37 38 39 40 40 41 42 43 43 44 45 45 46 45 45 45 45 45 45 45 45 45 44 44 44 44 44 44 44
35 35 34 34 33 33 32 32 33 33 33 34 34 33 33 32 32 32 32 32 31 30 29 29 28 27 26 25 26 27 28 27 26 26 25 25 26 26 27 26 26 26 26 25 25 25 25 25 25 26 28 30 31 32 33 34 35 36 37 38 39 40 41 42 42 43 43 44 45 45 45 45 45 45 45 45 45 45 45 44 44 44 43 43 43 43
35 35 35 34 34 34 33 34 34 35 35 35 35 34 34 34 33 33 33 32 31 30 29 29 28 27 26 26 26 27 28 27 27 26 26 25 26 26 26 26 26 26 25 25 25 26 26 26 27 29 30 31 31 32 33 34 34 35 36 38 38 39 40 41 41 42 42 43 43 44 45 45 45 45 45 45 44 44 44 44 43 43 43 43 43 43
35 35 35 35 35 35 34 34 34 35 35 35 35 35 34 34 34 33 33 32 31 31 30 29 29 28 27 26 26 27 28 28 28 27 26 26 26 26 26 26 26 25 25 25 25 26 25 26 27 28 30 31 31 32 33 33 34 35 36 37 38 38 39 40 40 41 41 42 42 43 44 45 45 45 45 44 44 44 44 43 43 43 43 43 43 43
36 36 36 37 36 35 35 35 35 35 37 36 36 35 34 34 33 33 32 32 31 31 30 29 29 28 28 27 27 27 28 28 27 27 27 26 26 26 26 26 25 25 25 25 25 25 25 25 25 26 29 30 31 32 33 33 34 34 35 36 37 38 38 39 40 40 40 41 41 42 43 44 44 44 44 44 44 43 43 43 43 43 43 43 43 43
38 38 38 38 38 37 36 36 36 37 38 37 36 35 34 34 33 32 32 32 31 30 30 29 29 29 29 29 29 28 29 28 28 27 27 26 26 26 26 26 25 25 24 25 25 25 25 25 25 27 29 30 31 32 32 33 34 34 35 35 36 37 38 38 39 39 40 40 40 41 42 43 43 43 44 43 43 43 43 43 43 43 43 43 43 43
38 38 39 39 39 38 38 38 38 38 38 37 36 35 35 34 34 33 33 33 33 32 32 31 31 30 30 29 29 29 29 29 28 28 27 26 25 25 26 26 25 25 25 25 25 25 25 25 25 26 28 30 31 32 32 33 33 34 34 35 36 36 37 38 38 39 39 39 40 40 41 42 42 43 43 43 43 43 43 43 43 43 43 43 43 43
38 38 39 39 39 39 39 38 38 38 38 37 37 36 36 36 35 35 35 35 35 34 34 33 32 31 30 30 29 29 29 29 29 28 27 26 26 25 25 25 25 25 25 25 25 25 25 25 25 25 27 29 30 31 32 33 33 34 34 35 35 36 37 37 38 38 38 39 39 40 40 40 41 42 42 43 43 43 43 43 43 43 43 43 43 43
38 38 38 39 39 39 39 39 38 38 38 37 37 37 36 36 36 36 35 35 35 34 34 33 31 29 29 29 29 29 29 29 29 29 28 26 26 25 25 25 25 25 25 25 25 25 25 25 25 25 26 28 29 31 31 32 33 33 34 34 35 36 36 37 37 38 38 38 39 39 39 40 40 41 41 42 42 43 43 43 43 43 43 43 43 43
40 39 39 39 40 40 40 40 40 40 39 38 37 36 36 36 36 35 34 34 34 33 32 30 29 28 28 28 28 28 29 29 29 29 28 27 26 25 25 25 25 24 25 25 25 25 25 25 25 25 25 27 28 30 31 32 32 33 34 34 35 35 36 37 37 38 38 38 38 38 39 39 39 40 40 40 41 42 42 42 43 43 42 42 42 43
42 41 41 41 41 41 41 41 41 41 41 40 38 37 36 35 34 34 32 32 31 31 30 29 28 27 27 27 27 27 28 29 29 29 29 28 26 25 25 25 25 25 25 25 25 25 26 25 25 25 25 26 27 29 30 31 32 33 33 34 34 35 36 37 37 37 38 38 38 38 38 39 39 39 39 39 40 40 41 41 41 41 41 42 42 42
42 42 42 42 42 42 42 42 42 42 42 42 41 40 38 36 34 32 31 30 30 30 29 29 28 27 26 26 26 26 27 28 29 29 30 29 27 26 25 25 25 25 25 25 25 26 27 26 26 26 26 26 27 28 29 31 32 32 33 34 34 35 36 36 37 37 38 38 38 38 38 38 38 39 39 39 39 40 40 40 40 40 40 41 41 42
41 41 41 41 42 42 42 42 42 42 42 43 42 42 40 37 34 32 30 30 30 30 29 29 28 27 26 26 26 26 26 27 28 29 30 29 27 26 25 25 25 25 25 25 25 25 26 26 26 26 26 27 27 28 29 30 31 32 33 34 34 35 35 36 37 37 38 38 38 38 38 38 38 38 39 39 39 39 39 39 40 40 40 40 41 41
40 40 40 40 40 40 40 40 41 41 42 42 42 42 42 38 36 34 33 32 31 30 29 29 28 27 27 26 26 26 26 26 28 29 30 29 27 26 25 25 25 25 25 25 24 24 24 25 26 26 26 27 27 27 28 29 30 31 32 33 34 34 35 36 36 37 37 38 38 38 38 38 38 38 39 39 39 39 39 39 39 39 40 40 40 40
38 38 38 38 38 38 39 39 39 40 40 41 41 42 42 40 38 36 35 34 33 31 29 29 28 28 27 27 26 25 25 26 27 29 29 28 27 26 25 25 25 25 25 25 24 23 22 23 24 25 27 27 26 26 27 28 29 29 30 32 33 34 34 35 35 36 37 37 38 38 38 38 39 39 39 39 39 39 39 39 39 39 40 40 39 39
38 38 38 37 37 37 37 38 38 38 39 39 40 40 41 40 39 38 36 35 34 33 31 30 29 28 28 27 26 25 25 25 27 29 29 28 27 26 26 25 25 25 25 25 25 23 22 22 23 24 25 26 26 26 26 27 28 29 29 30 31 32 34 34 35 35 36 37 37 38 38 39 39 39 40 40 40 40 39 39 40 40 40 39 38 38
39 39 38 38 37 36 36 36 36 37 37 38 38 38 39 40 40 39 38 36 35 34 33 31 30 29 29 28 27 27 26 26 27 29 30 29 28 27 26 25 25 25 25 25 25 25 24 23 22 23 24 25 26 26 26 27 27 28 28 28 29 30 32 33 34 34 35 36 37 38 38 38 39 40 40 41 41 41 41 41 41 41 41 38 38 37
39 39 39 38 37 36 35 35 35 35 36 36 37 37 38 38 39 39 39 38 36 35 34 33 31 30 29 29 28 28 27 27 28 29 30 29 28 27 26 25 25 25 25 25 25 25 25 24 23 23 23 25 26 27 27 27 27 27 27 27 27 28 29 31 33 34 35 36 36 37 38 38 39 40 40 41 41 41 42 42 42 42 41 38 37 36
39 39 39 39 38 37 36 35 34 34 35 35 36 36 36 37 38 38 39 38 37 36 35 34 33 32 30 29 29 28 28 28 29 30 31 30 29 27 26 25 25 25 25 25 25 25 25 24 24 24 23 23 25 26 27 27 27 27 27 27 27 27 28 29 30 32 34 35 35 36 36 37 38 38 39 40 40 41 41 41 41 41 40 39 38 36
38 38 38 38 38 38 37 35 35 34 34 34 35 35 36 36 37 37 38 38 38 37 37 35 34 34 33 31 30 29 29 29 29 30 31 30 29 28 26 26 25 25 25 25 25 25 24 24 25 25 24 23 23 24 26 27 28 27 27 27 27 27 27 28 29 30 31 33 34 34 35 35 36 37 37 38 39 39 40 40 40 39 39 38 38 37
38 38 38 38 38 38 38 36 35 35 35 34 34 34 35 35 36 36 37 38 38 38 37 37 36 35 34 34 32 31 31 30 30 31 32 31 30 29 27 26 26 26 25 25 25 25 25 25 25 25 25 24 23 23 24 26 27 27 27 27 27 27 27 27 28 29 29 31 32 33 34 34 35 35 36 37 38 38 38 39 39 38 38 38 38 38
37 37 37 37 37 37 38 37 36 35 35 34 34 34 34 35 35 36 37 37 37 37 37 37 36 36 35 35 34 34 33 33 33 33 33 33 31 30 28 27 27 26 26 26 25 25 25 25 24 24 24 24 24 24 24 25 25 26 26 27 27 27 27 27 27 28 28 29 30 32 33 33 34 34 34 35 36 36 37 37 38 38 38 38 38 38
36 36 35 35 36 36 36 36 36 35 35 34 34 34 34 35 35 36 36 37 37 37 37 37 36 36 35 35 35 35 34 34 33 33 33 33 33 31 29 28 28 27 27 27 27 26 25 25 25 24 24 23 24 24 24 24 25 25 26 26 27 27 27 27 27 27 27 27 28 29 30 31 32 32 33 34 34 34 35 35 36 37 37 37 37 38
35 35 35 35 35 35 35 36 36 35 35 35 34 34 34 34 35 36 36 37 37 37 37 37 37 37 36 35 35 35 35 34 34 34 33 33 33 33 31 29 29 28 28 28 28 27 26 26 25 25 25 24 24 24 24 24 25 25 26 25 25 26 27 27 27 27 27 26 27 27 28 29 29 29 30 31 31 32 33 33 34 34 35 35 35 36
34 34 35 35 36 37 37 37 36 36 36 35 35 34 34 34 34 35 35 35 36 36 36 36 36 36 36 36 35 35 34 34 34 34 34 33 33 34 33 32 30 29 29 28 28 27 27 26 26 26 25 25 25 25 25 25 25 26 27 25 25 25 26 27 27 27 27 26 26 26 26 27 27 28 28 28 28 29 29 29 30 30 31 31 31 32
34 34 35 35 36 37 38 37 37 36 36 36 35 34 34 34 33 33 33 33 34 34 34 34 34 34 33 34 34 34 34 34 34 34 34 33 33 33 33 33 32 30 29 29 28 28 28 27 27 26 26 26 25 25 25 25 25 26 27 26 25 25 26 27 27 27 26 26 26 26 26 26 26 26 26 26 26 26 27 26 27 28 28 27 27 27
34 34 34 34 35 36 36 36 37 37 37 36 35 34 34 34 33 33 32 32 32 32 32 32 32 31 31 31 32 32 34 34 34 34 34 33 33 33 33 32 32 32 30 29 28 28 28 28 28 27 27 26 26 25 25 25 25 26 27 27 27 25 25 25 26 27 26 26 26 25 25 25 25 25 25 25 25 25 25 26 26 27 27 25 25 25
34 34 34 34 35 35 36 36 36 37 36 36 35 34 34 34 33 33 32 31 31 31 31 31 31 30 30 29 29 30 31 33 33 34 34 34 34 33 32 32 32 32 31 30 29 28 28 28 28 28 28 27 27 26 26 25 25 25 26 27 27 26 25 25 26 26 26 26 26 26 25 25 25 25 25 25 25 25 25 25 25 25 26 25 24 23
34 34 34 34 34 35 35 35 35 35 36 35 35 35 34 34 34 33 32 31 31 30 30 30 30 29 29 29 29 29 29 30 32 32 33 34 34 34 33 32 32 32 32 30 29 29 28 27 27 28 28 28 27 27 26 26 25 25 26 27 28 28 27 26 27 27 26 26 26 26 26 27 26 26 25 25 25 25 25 25 25 24 24 24 24 23
33 33 33 34 34 34 34 34 34 35 35 35 35 35 35 34 33 32 32 31 30 30 30 30 29 29 28 28 28 28 28 29 30 30 31 32 33 34 34 33 33 32 31 31 30 30 29 28 28 28 28 28 28 27 27 26 26 25 26 27 28 28 28 28 27 27 27 26 26 27 27 28 27 26 25 25 25 25 25 25 25 25 24 24 23 23
32 32 32 32 33 33 33 33 34 34 34 34 35 35 35 34 33 32 31 31 30 30 30 30 29 29 27 27 27 27 27 28 28 29 30 30 31 32 33 33 33 33 32 32 31 31 30 30 29 29 28 28 27 27 27 27 26 26 26 26 27 28 28 28 28 28 28 27 27 27 28 28 27 27 26 26 26 25 25 25 25 25 24 24 23 23
31 31 31 32 32 32 32 33 34 34 34 34 34 35 35 35 34 32 31 31 30 30 30 29 29 28 28 27 27 27 27 27 28 28 29 29 30 30 31 32 33 33 33 33 32 32 31 31 31 30 29 28 27 27 27 27 27 27 26 26 27 27 28 28 29 29 29 28 28 28 28 27 27 26 26 26 25 25 25 25 25 25 25 24 23 23
31 31 31 31 31 31 31 32 33 33 32 33 33 34 35 35 34 33 31 30 30 29 29 29 28 28 27 27 27 28 28 28 27 28 28 29 29 29 30 31 31 31 32 32 32 32 32 32 32 31 31 29 28 27 27 27 27 27 27 27 27 27 27 28 29 29 29 29 29 29 29 27 26 26 25 25 25 25 25 25 25 25 25 24 24 23
30 30 31 31 31 31 30 31 31 31 31 32 32 33 34 34 34 33 32 30 30 29 29 29 28 28 27 27 27 27 28 28 27 27 28 28 29 29 29 30 30 30 30 30 30 30 30 30 31 32 32 32 30 29 27 27 27 27 28 28 28 27 27 27 28 29 29 29 29 30 30 28 27 26 25 25 25 24 24 24 25 25 25 25 24 24
28 29 29 30 30 30 30 31 31 31 31 31 32 32 33 33 33 33 32 30 30 29 29 28 28 28 27 27 27 27 28 27 27 27 28 28 29 29 29 29 29 29 28 28 28 28 28 27 28 29 30 32 32 31 29 28 27 27 27 28 28 28 28 27 28 28 29 29 29 29 30 29 28 27 26 25 25 24 24 24 24 24 25 25 24 24